,,,PA_Meas_PMT16A,,PR_Meas_QMR101_102,,RH_Meas_QMH101,,SR_Meas_QMS101,,TA_Meas_QMH101,,GenWind,,GenWind,
date,time,status,PA,status,PR,status,RH,status,SR,status,TA,status,DirAvg,status,SpdAvg,
2012-04-13, 00:00:04,VALID,1009.64,VALID,0,VALID,104,VALID,0,VALID,24.7659,VALID,101,VALID,1.05781,
2012-04-13, 00:01:04,VALID,1009.64,VALID,0,VALID,104,VALID,0,VALID,24.7854,VALID,111,VALID,0.707422,
2012-04-13, 00:02:04,VALID,1009.61,VALID,0,VALID,104,VALID,0,VALID,24.7659,VALID,111,VALID,0.441016,
2012-04-13, 00:03:04,VALID,1009.58,VALID,0,VALID,104,VALID,0,VALID,24.7659,VALID,125,VALID,0.471875,
2012-04-13, 00:04:04,VALID,1009.55,VALID,0,VALID,104,VALID,0,VALID,24.7464,VALID,125,VALID,0.312109,
2012-04-13, 00:05:04,VALID,1009.51,VALID,0,VALID,104,VALID,0,VALID,24.7269,VALID,125,VALID,0.466797,
2012-04-13, 00:06:04,VALID,1009.5,VALID,0,VALID,104,VALID,0,VALID,24.7269,VALID,125,VALID,0.595312,
2012-04-13, 00:07:04,VALID,1009.46,VALID,0,VALID,104,VALID,0,VALID,24.7464,VALID,136,VALID,0.685156,
2012-04-13, 00:08:04,VALID,1009.44,VALID,0,VALID,104,VALID,0,VALID,24.7074,VALID,135,VALID,0.448828,
2012-04-13, 00:09:04,VALID,1009.42,VALID,0,VALID,104,VALID,0,VALID,24.7074,VALID,135,VALID,0.187109,
2012-04-13, 00:10:04,VALID,1009.4,VALID,0,VALID,104,VALID,0,VALID,24.6879,VALID,135,VALID,0.000390625,
2012-04-13, 00:11:04,VALID,1009.41,VALID,0,VALID,104,VALID,0,VALID,24.6879,VALID,98,VALID,0.499609,
2012-04-13, 00:12:04,VALID,1009.38,VALID,0,VALID,104,VALID,0,VALID,24.7074,VALID,87,VALID,0.555859,
2012-04-13, 00:13:04,VALID,1009.38,VALID,0,VALID,104,VALID,0,VALID,24.7269,VALID,109,VALID,0.957812,
2012-04-13, 00:14:04,VALID,1009.39,VALID,0,VALID,104,VALID,0,VALID,24.7074,VALID,99,VALID,0.816016,
2012-04-13, 00:15:04,VALID,1009.39,VALID,0,VALID,104,VALID,0,VALID,24.7269,VALID,81,VALID,0.384766,
2012-04-13, 00:16:04,VALID,1009.38,VALID,0,VALID,104,VALID,0,VALID,24.7074,VALID,84,VALID,0.348437,
2012-04-13, 00:17:04,VALID,1009.37,VALID,0,VALID,104,VALID,0,VALID,24.7269,VALID,84,VALID,0.451172,
2012-04-13, 00:18:04,VALID,1009.39,VALID,0,VALID,104,VALID,0,VALID,24.7055,VALID,84,VALID,0.368359,
2012-04-13, 00:19:04,VALID,1009.38,VALID,0,VALID,104,VALID,0,VALID,24.7269,VALID,84,VALID,0.199219,
2012-04-13, 00:20:04,VALID,1009.36,VALID,0,VALID,104,VALID,0,VALID,24.7074,VALID,84,VALID,0,
2012-04-13, 00:21:04,VALID,1009.37,VALID,0,VALID,104,VALID,0,VALID,24.6879,VALID,84,VALID,0,
2012-04-13, 00:22:04,VALID,1009.34,VALID,0,VALID,104,VALID,0,VALID,24.6898,VALID,84,VALID,0,
2012-04-13, 00:23:04,VALID,1009.31,VALID,0,VALID,104,VALID,0,VALID,24.6684,VALID,84,VALID,0.246484,
2012-04-13, 00:24:04,VALID,1009.31,VALID,0,VALID,104,VALID,0,VALID,24.6276,VALID,84,VALID,0,
2012-04-13, 00:25:04,VALID,1009.32,VALID,0,VALID,104,VALID,0,VALID,24.6294,VALID,84,VALID,0,
2012-04-13, 00:26:04,VALID,1009.3,VALID,0,VALID,104,VALID,0,VALID,24.5905,VALID,84,VALID,0,
2012-04-13, 00:27:04,VALID,1009.29,VALID,0,VALID,104,VALID,0,VALID,24.571,VALID,84,VALID,0.000390625,
2012-04-13, 00:28:04,VALID,1009.27,VALID,0,VALID,104,VALID,0,VALID,24.5301,VALID,84,VALID,0,
2012-04-13, 00:29:04,VALID,1009.26,VALID,0,VALID,104,VALID,0,VALID,24.5125,VALID,84,VALID,0,
2012-04-13, 00:30:04,VALID,1009.27,VALID,0,VALID,104,VALID,0,VALID,24.5338,VALID,84,VALID,0,
2012-04-13, 00:31:04,VALID,1009.26,VALID,0,VALID,104,VALID,0,VALID,24.4717,VALID,84,VALID,0,
2012-04-13, 00:32:04,VALID,1009.27,VALID,0,VALID,104,VALID,0,VALID,24.493,VALID,84,VALID,0,
2012-04-13, 00:33:04,VALID,1009.27,VALID,0,VALID,104,VALID,0,VALID,24.4717,VALID,84,VALID,0,
2012-04-13, 00:34:04,VALID,1009.28,VALID,0,VALID,104,VALID,0,VALID,24.4735,VALID,84,VALID,0,
2012-04-13, 00:35:04,VALID,1009.3,VALID,0,VALID,104,VALID,0,VALID,24.493,VALID,84,VALID,0,
2012-04-13, 00:36:04,VALID,1009.28,VALID,0,VALID,104,VALID,0,VALID,24.493,VALID,84,VALID,0.154687,
2012-04-13, 00:37:04,VALID,1009.26,VALID,0,VALID,104,VALID,0.112112,VALID,24.493,VALID,84,VALID,0.236328,
2012-04-13, 00:38:04,VALID,1009.26,VALID,0,VALID,104,VALID,0,VALID,24.493,VALID,84,VALID,0.144141,
2012-04-13, 00:39:04,VALID,1009.27,VALID,0,VALID,104,VALID,0,VALID,24.5125,VALID,84,VALID,0,
2012-04-13, 00:40:04,VALID,1009.27,VALID,0,VALID,104,VALID,0,VALID,24.5125,VALID,84,VALID,0,
2012-04-13, 00:41:04,VALID,1009.25,VALID,0,VALID,104,VALID,0,VALID,24.5125,VALID,84,VALID,0,
2012-04-13, 00:42:04,VALID,1009.26,VALID,0,VALID,104,VALID,0.112112,VALID,24.4735,VALID,84,VALID,0,
2012-04-13, 00:43:04,VALID,1009.22,VALID,0,VALID,104,VALID,0,VALID,24.4754,VALID,84,VALID,0,
2012-04-13, 00:44:04,VALID,1009.18,VALID,0,VALID,104,VALID,0,VALID,24.4345,VALID,84,VALID,0,
2012-04-13, 00:45:04,VALID,1009.17,VALID,0,VALID,104,VALID,0,VALID,24.3956,VALID,84,VALID,0,
2012-04-13, 00:46:04,VALID,1009.19,VALID,0,VALID,104,VALID,0,VALID,24.3761,VALID,84,VALID,0,
2012-04-13, 00:47:04,VALID,1009.14,VALID,0,VALID,104,VALID,0,VALID,24.3566,VALID,84,VALID,0,
2012-04-13, 00:48:04,VALID,1009.14,VALID,0,VALID,104,VALID,0,VALID,24.3566,VALID,84,VALID,0,
2012-04-13, 00:49:04,VALID,1009.14,VALID,0,VALID,104,VALID,0,VALID,24.3176,VALID,84,VALID,0,
2012-04-13, 00:50:04,VALID,1009.15,VALID,0,VALID,104,VALID,0,VALID,24.2981,VALID,84,VALID,0,
2012-04-13, 00:51:04,VALID,1009.17,VALID,0,VALID,104,VALID,0,VALID,24.2786,VALID,84,VALID,0.2,
2012-04-13, 00:52:04,VALID,1009.18,VALID,0,VALID,104,VALID,0,VALID,24.2591,VALID,84,VALID,0,
2012-04-13, 00:53:04,VALID,1009.13,VALID,0,VALID,104,VALID,0,VALID,24.2591,VALID,84,VALID,0,
2012-04-13, 00:54:04,VALID,1009.13,VALID,0,VALID,104,VALID,0.112112,VALID,24.2396,VALID,84,VALID,0,
2012-04-13, 00:55:04,VALID,1009.13,VALID,0,VALID,104,VALID,0,VALID,24.1812,VALID,84,VALID,0,
2012-04-13, 00:56:04,VALID,1009.1,VALID,0,VALID,104,VALID,0,VALID,24.1617,VALID,84,VALID,0,
2012-04-13, 00:57:04,VALID,1009.1,VALID,0,VALID,104,VALID,0,VALID,24.1032,VALID,84,VALID,0,
2012-04-13, 00:58:04,VALID,1009.08,VALID,0,VALID,104,VALID,0,VALID,24.0643,VALID,84,VALID,0,
2012-04-13, 00:59:04,VALID,1009.07,VALID,0,VALID,104,VALID,0,VALID,24.0429,VALID,84,VALID,0,
2012-04-13, 01:00:04,VALID,1009.07,VALID,0,VALID,104,VALID,0,VALID,24.0448,VALID,84,VALID,0,
2012-04-13, 01:01:04,VALID,1009.05,VALID,0,VALID,104,VALID,0,VALID,24.0448,VALID,84,VALID,0,
2012-04-13, 01:02:04,VALID,1009,VALID,0,VALID,104,VALID,0,VALID,24.0624,VALID,84,VALID,0,
2012-04-13, 01:03:04,VALID,1008.99,VALID,0,VALID,104,VALID,0,VALID,24.0837,VALID,84,VALID,0,
2012-04-13, 01:04:04,VALID,1009.01,VALID,0,VALID,104,VALID,0,VALID,24.1245,VALID,84,VALID,0,
2012-04-13, 01:05:04,VALID,1009.01,VALID,0,VALID,104,VALID,0,VALID,24.0856,VALID,84,VALID,0.197266,
2012-04-13, 01:06:04,VALID,1009.02,VALID,0,VALID,104,VALID,0,VALID,24.0448,VALID,84,VALID,0,
2012-04-13, 01:07:04,VALID,1009.02,VALID,0,VALID,104,VALID,0.112112,VALID,24.0643,VALID,84,VALID,0.0808594,
2012-04-13, 01:08:04,VALID,1009.02,VALID,0,VALID,104,VALID,0,VALID,24.0643,VALID,84,VALID,0,
2012-04-13, 01:09:04,VALID,1009.01,VALID,0,VALID,104,VALID,0.112112,VALID,24.0448,VALID,84,VALID,0,
2012-04-13, 01:10:04,VALID,1008.98,VALID,0,VALID,104,VALID,0.112112,VALID,24.0253,VALID,84,VALID,0,
2012-04-13, 01:11:04,VALID,1008.98,VALID,0,VALID,104,VALID,0,VALID,24.0235,VALID,84,VALID,0,
2012-04-13, 01:12:04,VALID,1008.99,VALID,0,VALID,104,VALID,0,VALID,24.0643,VALID,84,VALID,0,
2012-04-13, 01:13:04,VALID,1008.95,VALID,0,VALID,104,VALID,0,VALID,24.0837,VALID,84,VALID,0,
2012-04-13, 01:14:04,VALID,1008.97,VALID,0,VALID,104,VALID,0,VALID,24.0837,VALID,84,VALID,0,
2012-04-13, 01:15:04,VALID,1008.95,VALID,0,VALID,104,VALID,0.112112,VALID,24.0429,VALID,84,VALID,0,
2012-04-13, 01:16:04,VALID,1008.95,VALID,0,VALID,104,VALID,0.112112,VALID,24.0643,VALID,84,VALID,0,
2012-04-13, 01:17:04,VALID,1008.97,VALID,0,VALID,104,VALID,0,VALID,24.0837,VALID,84,VALID,0,
2012-04-13, 01:18:04,VALID,1008.96,VALID,0,VALID,104,VALID,0,VALID,24.0837,VALID,84,VALID,0,
2012-04-13, 01:19:04,VALID,1008.96,VALID,0,VALID,104,VALID,0.112112,VALID,24.0624,VALID,84,VALID,0.00117188,
2012-04-13, 01:20:04,VALID,1008.97,VALID,0,VALID,104,VALID,0,VALID,24.0448,VALID,84,VALID,0.260156,
2012-04-13, 01:21:04,VALID,1008.98,VALID,0,VALID,104,VALID,0,VALID,24.0448,VALID,84,VALID,0.3375,
2012-04-13, 01:22:04,VALID,1008.96,VALID,0,VALID,104,VALID,0,VALID,24.0448,VALID,84,VALID,0.313281,
2012-04-13, 01:23:04,VALID,1008.96,VALID,0,VALID,104,VALID,0,VALID,24.0643,VALID,84,VALID,0.213281,
2012-04-13, 01:24:04,VALID,1008.96,VALID,0,VALID,104,VALID,0,VALID,24.0837,VALID,84,VALID,0.251953,
2012-04-13, 01:25:04,VALID,1008.95,VALID,0,VALID,104,VALID,0,VALID,24.0837,VALID,84,VALID,0.226172,
2012-04-13, 01:26:04,VALID,1008.95,VALID,0,VALID,104,VALID,0,VALID,24.0643,VALID,84,VALID,0.0699219,
2012-04-13, 01:27:04,VALID,1008.97,VALID,0,VALID,104,VALID,0,VALID,24.0643,VALID,84,VALID,0.124609,
2012-04-13, 01:28:04,VALID,1008.95,VALID,0,VALID,104,VALID,0,VALID,24.0448,VALID,84,VALID,0.289844,
2012-04-13, 01:29:04,VALID,1008.94,VALID,0,VALID,104,VALID,0,VALID,24.0253,VALID,84,VALID,0.290625,
2012-04-13, 01:30:04,VALID,1008.94,VALID,0,VALID,104,VALID,0,VALID,24.0448,VALID,84,VALID,0.277344,
2012-04-13, 01:31:04,VALID,1008.94,VALID,0,VALID,104,VALID,0,VALID,24.0448,VALID,84,VALID,0.297266,
2012-04-13, 01:32:04,VALID,1008.93,VALID,0,VALID,104,VALID,0,VALID,24.0253,VALID,84,VALID,0.160938,
2012-04-13, 01:33:04,VALID,1008.96,VALID,0,VALID,104,VALID,0,VALID,24.0058,VALID,84,VALID,0.0480469,
2012-04-13, 01:34:04,VALID,1008.96,VALID,0,VALID,104,VALID,0,VALID,23.9668,VALID,84,VALID,0,
2012-04-13, 01:35:04,VALID,1008.93,VALID,0,VALID,104,VALID,0,VALID,23.9473,VALID,84,VALID,0,
2012-04-13, 01:36:04,VALID,1008.96,VALID,0,VALID,104,VALID,0,VALID,23.9084,VALID,84,VALID,0,
2012-04-13, 01:37:04,VALID,1008.92,VALID,0,VALID,104,VALID,0.112112,VALID,23.9084,VALID,84,VALID,0,
2012-04-13, 01:38:04,VALID,1008.93,VALID,0,VALID,104,VALID,0,VALID,23.9084,VALID,84,VALID,0,
2012-04-13, 01:39:04,VALID,1008.92,VALID,0,VALID,104,VALID,0,VALID,23.8871,VALID,84,VALID,0,
2012-04-13, 01:40:04,VALID,1008.92,VALID,0,VALID,104,VALID,0.112112,VALID,23.9084,VALID,84,VALID,0.208203,
2012-04-13, 01:41:04,VALID,1008.88,VALID,0,VALID,104,VALID,0.112112,VALID,23.9084,VALID,84,VALID,0.234375,
2012-04-13, 01:42:04,VALID,1008.86,VALID,0,VALID,104,VALID,0,VALID,23.9084,VALID,84,VALID,0.228906,
2012-04-13, 01:43:04,VALID,1008.87,VALID,0,VALID,104,VALID,0,VALID,23.9278,VALID,84,VALID,0.176172,
2012-04-13, 01:44:04,VALID,1008.88,VALID,0,VALID,104,VALID,0,VALID,23.9668,VALID,84,VALID,0.0453125,
2012-04-13, 01:45:04,VALID,1008.87,VALID,0,VALID,104,VALID,0,VALID,23.9473,VALID,84,VALID,0,
2012-04-13, 01:46:04,VALID,1008.86,VALID,0,VALID,104,VALID,0,VALID,23.9473,VALID,84,VALID,0,
2012-04-13, 01:47:04,VALID,1008.86,VALID,0,VALID,104,VALID,0,VALID,23.9473,VALID,84,VALID,0,
2012-04-13, 01:48:04,VALID,1008.86,VALID,0,VALID,104,VALID,0,VALID,23.926,VALID,84,VALID,0,
2012-04-13, 01:49:04,VALID,1008.85,VALID,0,VALID,104,VALID,0,VALID,23.9278,VALID,84,VALID,0,
2012-04-13, 01:50:04,VALID,1008.83,VALID,0,VALID,104,VALID,0,VALID,23.8871,VALID,84,VALID,0,
2012-04-13, 01:51:04,VALID,1008.8,VALID,0,VALID,104,VALID,0,VALID,23.8676,VALID,84,VALID,0,
2012-04-13, 01:52:04,VALID,1008.78,VALID,0,VALID,104,VALID,0,VALID,23.8499,VALID,84,VALID,0,
2012-04-13, 01:53:04,VALID,1008.76,VALID,0,VALID,104,VALID,0,VALID,23.8694,VALID,84,VALID,0,
2012-04-13, 01:54:04,VALID,1008.73,VALID,0,VALID,104,VALID,0,VALID,23.8694,VALID,84,VALID,0,
2012-04-13, 01:55:04,VALID,1008.7,VALID,0,VALID,104,VALID,0,VALID,23.8499,VALID,84,VALID,0.174219,
2012-04-13, 01:56:04,VALID,1008.66,VALID,0,VALID,104,VALID,0,VALID,23.8499,VALID,84,VALID,0.210156,
2012-04-13, 01:57:04,VALID,1008.67,VALID,0,VALID,104,VALID,0,VALID,23.8481,VALID,84,VALID,0.26875,
2012-04-13, 01:58:04,VALID,1008.66,VALID,0,VALID,104,VALID,0.112112,VALID,23.8499,VALID,84,VALID,0.244141,
2012-04-13, 01:59:04,VALID,1008.67,VALID,0,VALID,104,VALID,0,VALID,23.8499,VALID,84,VALID,0.245312,
2012-04-13, 02:00:04,VALID,1008.63,VALID,0,VALID,104,VALID,0,VALID,23.8499,VALID,84,VALID,0.118359,
2012-04-13, 02:01:04,VALID,1008.65,VALID,0,VALID,104,VALID,0,VALID,23.8712,VALID,84,VALID,0.00703125,
2012-04-13, 02:02:04,VALID,1008.65,VALID,0,VALID,104,VALID,0,VALID,23.8304,VALID,84,VALID,0.00546875,
2012-04-13, 02:03:04,VALID,1008.65,VALID,0,VALID,104,VALID,0,VALID,23.8109,VALID,84,VALID,0.0046875,
2012-04-13, 02:04:04,VALID,1008.65,VALID,0,VALID,104,VALID,0,VALID,23.772,VALID,84,VALID,0,
2012-04-13, 02:05:04,VALID,1008.65,VALID,0,VALID,104,VALID,0,VALID,23.8304,VALID,84,VALID,0.171484,
2012-04-13, 02:06:04,VALID,1008.66,VALID,0,VALID,104,VALID,0,VALID,23.8889,VALID,84,VALID,0,
2012-04-13, 02:07:04,VALID,1008.64,VALID,0,VALID,104,VALID,0,VALID,23.9473,VALID,84,VALID,0,
2012-04-13, 02:08:04,VALID,1008.61,VALID,0,VALID,104,VALID,0,VALID,23.9668,VALID,84,VALID,0,
2012-04-13, 02:09:04,VALID,1008.59,VALID,0,VALID,104,VALID,0,VALID,23.9863,VALID,84,VALID,0,
2012-04-13, 02:10:04,VALID,1008.55,VALID,0,VALID,104,VALID,0,VALID,23.9863,VALID,84,VALID,0,
2012-04-13, 02:11:04,VALID,1008.54,VALID,0,VALID,104,VALID,0,VALID,23.9668,VALID,84,VALID,0,
2012-04-13, 02:12:04,VALID,1008.52,VALID,0,VALID,104,VALID,0,VALID,23.9065,VALID,84,VALID,0,
2012-04-13, 02:13:04,VALID,1008.51,VALID,0,VALID,104,VALID,0,VALID,23.9297,VALID,84,VALID,0,
2012-04-13, 02:14:04,VALID,1008.51,VALID,0,VALID,104,VALID,0,VALID,23.9084,VALID,84,VALID,0,
2012-04-13, 02:15:04,VALID,1008.52,VALID,0,VALID,104,VALID,0,VALID,23.8871,VALID,84,VALID,0,
2012-04-13, 02:16:04,VALID,1008.53,VALID,0,VALID,104,VALID,0,VALID,23.9102,VALID,84,VALID,0,
2012-04-13, 02:17:04,VALID,1008.52,VALID,0,VALID,104,VALID,0,VALID,23.8481,VALID,84,VALID,0.0796875,
2012-04-13, 02:18:04,VALID,1008.49,VALID,0,VALID,104,VALID,0,VALID,23.8889,VALID,84,VALID,0,
2012-04-13, 02:19:04,VALID,1008.47,VALID,0,VALID,104,VALID,0,VALID,23.8694,VALID,84,VALID,0,
2012-04-13, 02:20:04,VALID,1008.47,VALID,0,VALID,104,VALID,0,VALID,23.8499,VALID,84,VALID,0,
2012-04-13, 02:21:04,VALID,1008.48,VALID,0,VALID,104,VALID,0,VALID,23.8109,VALID,84,VALID,0,
2012-04-13, 02:22:04,VALID,1008.46,VALID,0,VALID,104,VALID,0,VALID,23.7914,VALID,84,VALID,0,
2012-04-13, 02:23:04,VALID,1008.5,VALID,0,VALID,104,VALID,0,VALID,23.7525,VALID,84,VALID,0,
2012-04-13, 02:24:04,VALID,1008.48,VALID,0,VALID,104,VALID,0,VALID,23.7135,VALID,84,VALID,0,
2012-04-13, 02:25:04,VALID,1008.5,VALID,0,VALID,104,VALID,0,VALID,23.7348,VALID,84,VALID,0,
2012-04-13, 02:26:04,VALID,1008.49,VALID,0,VALID,104,VALID,0,VALID,23.733,VALID,84,VALID,0,
2012-04-13, 02:27:04,VALID,1008.5,VALID,0,VALID,104,VALID,0,VALID,23.733,VALID,84,VALID,0,
2012-04-13, 02:28:04,VALID,1008.5,VALID,0,VALID,104,VALID,0,VALID,23.7135,VALID,84,VALID,0,
2012-04-13, 02:29:04,VALID,1008.5,VALID,0,VALID,104,VALID,0,VALID,23.7135,VALID,84,VALID,0,
2012-04-13, 02:30:04,VALID,1008.47,VALID,0,VALID,104,VALID,0,VALID,23.7135,VALID,84,VALID,0.0128906,
2012-04-13, 02:31:04,VALID,1008.47,VALID,0,VALID,104,VALID,0,VALID,23.694,VALID,84,VALID,0,
2012-04-13, 02:32:04,VALID,1008.44,VALID,0,VALID,104,VALID,0,VALID,23.694,VALID,84,VALID,0,
2012-04-13, 02:33:04,VALID,1008.44,VALID,0,VALID,104,VALID,0,VALID,23.7135,VALID,84,VALID,0.0824219,
2012-04-13, 02:34:04,VALID,1008.43,VALID,0,VALID,104,VALID,0,VALID,23.733,VALID,84,VALID,0.215625,
2012-04-13, 02:35:04,VALID,1008.43,VALID,0,VALID,104,VALID,0,VALID,23.7543,VALID,84,VALID,0.0621094,
2012-04-13, 02:36:04,VALID,1008.4,VALID,0,VALID,104,VALID,0,VALID,23.7525,VALID,84,VALID,0,
2012-04-13, 02:37:04,VALID,1008.41,VALID,0,VALID,104,VALID,0,VALID,23.7525,VALID,84,VALID,0,
2012-04-13, 02:38:04,VALID,1008.37,VALID,0,VALID,104,VALID,0.112112,VALID,23.7525,VALID,84,VALID,0,
2012-04-13, 02:39:04,VALID,1008.33,VALID,0,VALID,104,VALID,0,VALID,23.7525,VALID,84,VALID,0,
2012-04-13, 02:40:04,VALID,1008.32,VALID,0,VALID,104,VALID,0,VALID,23.7135,VALID,84,VALID,0,
2012-04-13, 02:41:04,VALID,1008.29,VALID,0,VALID,104,VALID,0,VALID,23.694,VALID,84,VALID,0,
2012-04-13, 02:42:04,VALID,1008.31,VALID,0,VALID,104,VALID,0,VALID,23.6745,VALID,84,VALID,0,
2012-04-13, 02:43:04,VALID,1008.28,VALID,0,VALID,104,VALID,0,VALID,23.6532,VALID,84,VALID,0,
2012-04-13, 02:44:04,VALID,1008.27,VALID,0,VALID,104,VALID,0,VALID,23.6745,VALID,84,VALID,0,
2012-04-13, 02:45:04,VALID,1008.28,VALID,0,VALID,104,VALID,0,VALID,23.6745,VALID,84,VALID,0,
2012-04-13, 02:46:04,VALID,1008.22,VALID,0,VALID,104,VALID,0,VALID,23.6745,VALID,84,VALID,0,
2012-04-13, 02:47:04,VALID,1008.2,VALID,0,VALID,104,VALID,0,VALID,23.655,VALID,84,VALID,0,
2012-04-13, 02:48:04,VALID,1008.19,VALID,0,VALID,104,VALID,0,VALID,23.655,VALID,84,VALID,0,
2012-04-13, 02:49:04,VALID,1008.16,VALID,0,VALID,104,VALID,0,VALID,23.6356,VALID,84,VALID,0,
2012-04-13, 02:50:04,VALID,1008.11,VALID,0,VALID,104,VALID,0,VALID,23.6161,VALID,84,VALID,0,
2012-04-13, 02:51:04,VALID,1008.1,VALID,0,VALID,104,VALID,0,VALID,23.6161,VALID,84,VALID,0,
2012-04-13, 02:52:04,VALID,1008.08,VALID,0,VALID,104,VALID,0,VALID,23.5771,VALID,84,VALID,0,
2012-04-13, 02:53:04,VALID,1008.04,VALID,0,VALID,104,VALID,0,VALID,23.5966,VALID,84,VALID,0,
2012-04-13, 02:54:04,VALID,1008.02,VALID,0,VALID,104,VALID,0,VALID,23.6356,VALID,84,VALID,0,
2012-04-13, 02:55:04,VALID,1008.01,VALID,0,VALID,104,VALID,0,VALID,23.655,VALID,84,VALID,0,
2012-04-13, 02:56:04,VALID,1007.99,VALID,0,VALID,104,VALID,0,VALID,23.655,VALID,84,VALID,0,
2012-04-13, 02:57:04,VALID,1007.95,VALID,0,VALID,104,VALID,0,VALID,23.655,VALID,84,VALID,0,
2012-04-13, 02:58:04,VALID,1007.95,VALID,0,VALID,104,VALID,0,VALID,23.655,VALID,84,VALID,0,
2012-04-13, 02:59:04,VALID,1007.94,VALID,0,VALID,104,VALID,0,VALID,23.6745,VALID,84,VALID,0,
2012-04-13, 03:00:04,VALID,1007.96,VALID,0,VALID,104,VALID,0,VALID,23.655,VALID,84,VALID,0,
2012-04-13, 03:01:04,VALID,1007.92,VALID,0,VALID,104,VALID,0,VALID,23.655,VALID,84,VALID,0.105078,
2012-04-13, 03:02:04,VALID,1007.94,VALID,0,VALID,104,VALID,0,VALID,23.6745,VALID,84,VALID,0.362109,
2012-04-13, 03:03:04,VALID,1007.94,VALID,0,VALID,104,VALID,0,VALID,23.6745,VALID,84,VALID,0.240234,
2012-04-13, 03:04:04,VALID,1007.91,VALID,0,VALID,104,VALID,0,VALID,23.694,VALID,84,VALID,0.2625,
2012-04-13, 03:05:04,VALID,1007.92,VALID,0,VALID,104,VALID,0,VALID,23.733,VALID,84,VALID,0.239844,
2012-04-13, 03:06:04,VALID,1007.91,VALID,0,VALID,104,VALID,0,VALID,23.772,VALID,84,VALID,0.346875,
2012-04-13, 03:07:04,VALID,1007.86,VALID,0,VALID,104,VALID,0,VALID,23.7914,VALID,84,VALID,0.225391,
2012-04-13, 03:08:04,VALID,1007.82,VALID,0,VALID,104,VALID,0,VALID,23.772,VALID,62,VALID,0.0824219,
2012-04-13, 03:09:04,VALID,1007.81,VALID,0,VALID,104,VALID,0,VALID,23.772,VALID,62,VALID,0.295703,
2012-04-13, 03:10:04,VALID,1007.77,VALID,0,VALID,104,VALID,0,VALID,23.7914,VALID,62,VALID,0.0339844,
2012-04-13, 03:11:04,VALID,1007.78,VALID,0,VALID,104,VALID,0,VALID,23.8109,VALID,62,VALID,0,
2012-04-13, 03:12:04,VALID,1007.79,VALID,0,VALID,104,VALID,0,VALID,23.8109,VALID,62,VALID,0,
2012-04-13, 03:13:04,VALID,1007.79,VALID,0,VALID,104,VALID,0,VALID,23.8109,VALID,62,VALID,0,
2012-04-13, 03:14:04,VALID,1007.77,VALID,0,VALID,104,VALID,0,VALID,23.7914,VALID,62,VALID,0,
2012-04-13, 03:15:04,VALID,1007.76,VALID,0,VALID,104,VALID,0,VALID,23.772,VALID,62,VALID,0,
2012-04-13, 03:16:04,VALID,1007.76,VALID,0,VALID,104,VALID,0,VALID,23.733,VALID,62,VALID,0,
2012-04-13, 03:17:04,VALID,1007.76,VALID,0,VALID,104,VALID,0,VALID,23.733,VALID,62,VALID,0,
2012-04-13, 03:18:04,VALID,1007.74,VALID,0,VALID,104,VALID,0,VALID,23.7135,VALID,62,VALID,0,
2012-04-13, 03:19:04,VALID,1007.74,VALID,0,VALID,104,VALID,0,VALID,23.7135,VALID,62,VALID,0,
2012-04-13, 03:20:04,VALID,1007.73,VALID,0,VALID,104,VALID,0,VALID,23.733,VALID,62,VALID,0,
2012-04-13, 03:21:04,VALID,1007.71,VALID,0,VALID,104,VALID,0,VALID,23.7117,VALID,62,VALID,0,
2012-04-13, 03:22:04,VALID,1007.72,VALID,0,VALID,104,VALID,0,VALID,23.733,VALID,62,VALID,0,
2012-04-13, 03:23:04,VALID,1007.69,VALID,0,VALID,104,VALID,0,VALID,23.6922,VALID,62,VALID,0.127344,
2012-04-13, 03:24:04,VALID,1007.71,VALID,0,VALID,104,VALID,0,VALID,23.6745,VALID,62,VALID,0.139844,
2012-04-13, 03:25:04,VALID,1007.7,VALID,0,VALID,104,VALID,0,VALID,23.6745,VALID,62,VALID,0,
2012-04-13, 03:26:04,VALID,1007.68,VALID,0,VALID,104,VALID,0,VALID,23.6532,VALID,62,VALID,0,
2012-04-13, 03:27:04,VALID,1007.7,VALID,0,VALID,104,VALID,0,VALID,23.6161,VALID,62,VALID,0,
2012-04-13, 03:28:04,VALID,1007.66,VALID,0,VALID,104,VALID,0,VALID,23.5966,VALID,62,VALID,0.0863281,
2012-04-13, 03:29:04,VALID,1007.63,VALID,0,VALID,104,VALID,0,VALID,23.5966,VALID,62,VALID,0,
2012-04-13, 03:30:04,VALID,1007.62,VALID,0,VALID,104,VALID,0,VALID,23.5771,VALID,62,VALID,0.00429688,
2012-04-13, 03:31:04,VALID,1007.59,VALID,0,VALID,104,VALID,0,VALID,23.5966,VALID,62,VALID,0.00429688,
2012-04-13, 03:32:04,VALID,1007.57,VALID,0,VALID,104,VALID,0,VALID,23.6373,VALID,62,VALID,0,
2012-04-13, 03:33:04,VALID,1007.6,VALID,0,VALID,104,VALID,0,VALID,23.655,VALID,62,VALID,0,
2012-04-13, 03:34:04,VALID,1007.58,VALID,0,VALID,104,VALID,0,VALID,23.655,VALID,62,VALID,0.0417969,
2012-04-13, 03:35:04,VALID,1007.59,VALID,0,VALID,104,VALID,0,VALID,23.7525,VALID,62,VALID,0.128516,
2012-04-13, 03:36:04,VALID,1007.59,VALID,0,VALID,104,VALID,0,VALID,23.8109,VALID,62,VALID,0.215234,
2012-04-13, 03:37:04,VALID,1007.57,VALID,0,VALID,104,VALID,0,VALID,23.8304,VALID,62,VALID,0.0742188,
2012-04-13, 03:38:04,VALID,1007.57,VALID,0,VALID,104,VALID,0,VALID,23.8889,VALID,83,VALID,0.407422,
2012-04-13, 03:39:04,VALID,1007.56,VALID,0,VALID,104,VALID,0,VALID,23.8286,VALID,83,VALID,0.310937,
2012-04-13, 03:40:04,VALID,1007.55,VALID,0,VALID,104,VALID,0,VALID,23.8889,VALID,67,VALID,0.535156,
2012-04-13, 03:41:04,VALID,1007.55,VALID,0,VALID,104,VALID,0,VALID,23.8499,VALID,67,VALID,0.436719,
2012-04-13, 03:42:04,VALID,1007.56,VALID,0,VALID,104,VALID,0,VALID,23.8304,VALID,85,VALID,0.627344,
2012-04-13, 03:43:04,VALID,1007.56,VALID,0,VALID,104,VALID,0,VALID,23.8694,VALID,98,VALID,0.487891,
2012-04-13, 03:44:04,VALID,1007.56,VALID,0,VALID,104,VALID,0,VALID,23.8499,VALID,98,VALID,0,
2012-04-13, 03:45:04,VALID,1007.55,VALID,0,VALID,104,VALID,0,VALID,23.8304,VALID,98,VALID,0,
2012-04-13, 03:46:04,VALID,1007.57,VALID,0,VALID,104,VALID,0,VALID,23.8091,VALID,98,VALID,0,
2012-04-13, 03:47:04,VALID,1007.6,VALID,0,VALID,104,VALID,0,VALID,23.8109,VALID,98,VALID,0,
2012-04-13, 03:48:04,VALID,1007.61,VALID,0,VALID,104,VALID,0,VALID,23.772,VALID,98,VALID,0,
2012-04-13, 03:49:04,VALID,1007.63,VALID,0,VALID,104,VALID,0,VALID,23.7525,VALID,98,VALID,0,
2012-04-13, 03:50:04,VALID,1007.64,VALID,0,VALID,104,VALID,0,VALID,23.7135,VALID,98,VALID,0,
2012-04-13, 03:51:04,VALID,1007.67,VALID,0,VALID,104,VALID,0,VALID,23.694,VALID,98,VALID,0.354297,
2012-04-13, 03:52:04,VALID,1007.68,VALID,0,VALID,104,VALID,0,VALID,23.6745,VALID,98,VALID,0.199219,
2012-04-13, 03:53:04,VALID,1007.7,VALID,0,VALID,104,VALID,0,VALID,23.6338,VALID,98,VALID,0.308203,
2012-04-13, 03:54:04,VALID,1007.73,VALID,0,VALID,104,VALID,0,VALID,23.6356,VALID,81,VALID,0.257422,
2012-04-13, 03:55:04,VALID,1007.75,VALID,0,VALID,104,VALID,0,VALID,23.6338,VALID,81,VALID,0.307813,
2012-04-13, 03:56:04,VALID,1007.71,VALID,0,VALID,104,VALID,0,VALID,23.6745,VALID,81,VALID,0.252344,
2012-04-13, 03:57:04,VALID,1007.74,VALID,0,VALID,104,VALID,0,VALID,23.655,VALID,81,VALID,0.356641,
2012-04-13, 03:58:04,VALID,1007.74,VALID,0,VALID,104,VALID,0,VALID,23.6356,VALID,62,VALID,0.369531,
2012-04-13, 03:59:04,VALID,1007.75,VALID,0,VALID,104,VALID,0,VALID,23.6356,VALID,62,VALID,0.291016,
2012-04-13, 04:00:04,VALID,1007.76,VALID,0,VALID,104,VALID,0,VALID,23.6356,VALID,62,VALID,0.298438,
2012-04-13, 04:01:04,VALID,1007.74,VALID,0,VALID,104,VALID,0,VALID,23.655,VALID,62,VALID,0,
2012-04-13, 04:02:04,VALID,1007.74,VALID,0,VALID,104,VALID,0,VALID,23.6745,VALID,62,VALID,0.0234375,
2012-04-13, 04:03:04,VALID,1007.75,VALID,0,VALID,104,VALID,0,VALID,23.655,VALID,62,VALID,0,
2012-04-13, 04:04:04,VALID,1007.74,VALID,0,VALID,104,VALID,0,VALID,23.6356,VALID,62,VALID,0,